カタログに戻る

SL-16 DEB

運用中LEO
NORAD 22333·DEBRIS·🇷🇺 Russia

打ち上げ Dec 25, 1992 から Baikonur Cosmodrome

Loading…

次のパス (今後24時間)

TLE

最新Source: Space-Track

元期: Sep 14, 2026, 09:32 UTC

1 22333U 92093W   26257.39740601  .00000303  00000-0  91969-4 0  9992
2 22333  71.0009 239.9591 0120598  68.6294 292.7663 14.46181261752968

AllMySatでSL-16 DEBをリアルタイム追跡

Download on the App Store